DW0664 Weather Reports


Display with metric or nautical units.
time (UTC)temp
F
wind
direction
speed
MPH
gust
MPH
rain 1hr
in
rain 24hr
in
rain mn
in
humidity
%
barometer
mb
20260504201850 84 101 2.0 4.0 0.00 0.00 0.00 55 1013.6
20260504201348 83 100 1.0 2.0 0.00 0.00 0.00 56 1013.9
20260504200845 83 138 3.0 3.0 0.00 0.00 0.00 57 1013.9
20260504200342 83 153 1.0 2.0 0.00 0.00 0.00 59 1014.1
20260504195838 82 110 2.0 6.0 0.00 0.00 0.00 57 1014.3
20260504195334 82 52 2.0 4.0 0.00 0.00 0.00 54 1014.3
20260504194831 82 62 1.0 3.0 0.00 0.00 0.00 57 1014.4
20260504194327 82 114 3.0 6.0 0.00 0.00 0.00 55 1014.4
20260504193823 82 42 1.0 6.0 0.00 0.00 0.00 56 1014.4
20260504193321 82 79 1.0 2.0 0.00 0.00 0.00 58 1014.7
20260504192819 82 132 0.0 2.0 0.00 0.00 0.00 57 1014.4
20260504192317 82 144 1.0 3.0 0.00 0.00 0.00 56 1014.6
20260504191815 81 114 1.0 2.0 0.00 0.00 0.00 56 1014.7
20260504191312 81 80 1.0 8.0 0.00 0.00 0.00 57 1014.7
20260504190808 82 86 1.0 3.0 0.00 0.00 0.00 55 1014.5
20260504190304 80 4 1.0 1.0 0.00 0.00 0.00 58 1014.8
20260504185800 81 126 2.0 4.0 0.00 0.00 0.00 56 1014.8
20260504185258 80 60 1.0 1.0 0.00 0.00 0.00 57 1015.0
20260504184754 81 67 1.0 4.0 0.00 0.00 0.00 58 1014.9
20260504184249 82 53 1.0 2.0 0.00 0.00 0.00 56 1015.3
20260504183745 82 70 2.0 3.0 0.00 0.00 0.00 55 1015.4
20260504183242 81 101 1.0 4.0 0.00 0.00 0.00 55 1015.4
20260504182741 81 252 1.0 7.0 0.00 0.00 0.00 56 1015.4
20260504182238 82 244 2.0 2.0 0.00 0.00 0.00 55 1015.5
20260504181735 81 109 1.0 3.0 0.00 0.00 0.00 55 1015.6
20260504181232 79 62 0.0 6.0 0.00 0.00 0.00 58 1015.5
20260504180731 80 124 2.0 8.0 0.00 0.00 0.00 56 1015.9
20260504180230 81 78 1.0 3.0 0.00 0.00 0.00 56 1015.8
20260504175727 81 77 3.0 6.0 0.00 0.00 0.00 55 1015.8
20260504175223 81 81 3.0 4.0 0.00 0.00 0.00 56 1016.1
20260504174721 80 87 4.0 4.0 0.00 0.00 0.00 56 1015.9
20260504174219 80 55 1.0 4.0 0.00 0.00 0.00 57 1016.0
20260504173715 79 84 1.0 2.0 0.00 0.00 0.00 60 1016.2
20260504173213 79 148 2.0 4.0 0.00 0.00 0.00 58 1016.1
20260504172709 78 80 0.0 8.0 0.00 0.00 0.00 60 1016.1
20260504172205 78 59 2.0 6.0 0.00 0.00 0.00 58 1016.3
20260504171702 78 70 0.0 2.0 0.00 0.00 0.00 64 1016.3
20260504171159 78 90 2.0 7.0 0.00 0.00 0.00 60 1016.5
20260504170655 78 59 0.0 2.0 0.00 0.00 0.00 60 1016.4
20260504170153 77 65 1.0 2.0 0.00 0.00 0.00 62 1016.4
20260504160112 75 31 0.0 6.0 0.00 0.00 0.00 64 1016.9
20260504151044 74 60 1.0 3.0 0.00 0.00 0.00 65 1017.1
20260504150542 73 80 1.0 2.0 0.00 0.00 0.00 66 1017.3
20260504141008 70 187 1.0 2.0 0.00 0.00 0.00 66 1017.4
20260504140505 70 110 1.0 3.0 0.00 0.00 0.00 66 1017.2
20260504130429 63 66 0.0 1.0 0.00 0.00 0.00 73 1017.2
20260504110316 61 63 1.0 2.0 0.00 0.00 0.00 75 1016.8
20260504100234 61 87 1.0 3.0 0.00 0.00 0.00 75 1017.4
20260504081622 63 115 1.0 3.0 0.00 0.00 0.00 73 1017.5
20260504081118 63 92 1.0 2.0 0.00 0.00 0.00 73 1017.7
20260504080615 63 74 1.0 2.0 0.00 0.00 0.00 73 1017.5
20260504080111 63 69 1.0 2.0 0.00 0.00 0.00 72 1017.6
20260504050427 65 74 0.0 3.0 0.00 0.00 0.00 68 1019.7
20260504045919 65 71 0.0 3.0 0.00 0.00 0.00 69 1019.5
20260504045414 65 69 0.0 0.0 0.00 0.00 0.00 68 1019.8
20260504044911 65 126 3.0 4.0 0.00 0.00 0.00 67 1019.8
20260504044408 65 104 1.0 3.0 0.00 0.00 0.00 67 1019.9
20260504043906 66 117 1.0 2.0 0.00 0.00 0.00 67 1019.8
20260504043402 66 76 0.0 1.0 0.00 0.00 0.00 67 1019.9
20260504042900 66 69 0.0 1.0 0.00 0.00 0.00 66 1019.8
20260504042356 66 71 1.0 2.0 0.00 0.00 0.00 64 1020.1
20260504041852 66 76 0.0 2.0 0.00 0.00 0.00 64 1020.0
20260504041348 67 77 1.0 3.0 0.00 0.00 0.00 63 1020.1
20260504040845 67 57 1.0 2.0 0.00 0.00 0.00 63 1020.1
20260504040342 67 76 0.0 3.0 0.00 0.00 0.00 61 1020.1
20260504035838 68 74 0.0 2.0 0.00 0.00 0.00 60 1020.0
20260504035337 68 87 1.0 2.0 0.00 0.00 0.00 59 1020.1
20260504034833 68 137 1.0 2.0 0.00 0.00 0.00 58 1020.0
20260504034330 68 85 1.0 3.0 0.00 0.00 0.00 57 1020.0
20260504033827 69 88 0.0 4.0 0.00 0.00 0.00 55 1020.2
20260504033325 69 68 2.0 6.0 0.00 0.00 0.00 54 1019.9
20260504032821 69 76 0.0 2.0 0.00 0.00 0.00 53 1019.8
20260504032319 70 70 0.0 1.0 0.00 0.00 0.00 51 1019.6
20260504031815 69 87 1.0 2.0 0.00 0.00 0.00 51 1019.7
20260504031313 69 120 1.0 2.0 0.00 0.00 0.00 52 1019.6
20260504030809 69 72 0.0 1.0 0.00 0.00 0.00 52 1019.8
20260504030306 69 111 0.0 1.0 0.00 0.00 0.00 51 1019.6
20260504025802 69 69 0.0 0.0 0.00 0.00 0.00 52 1019.7
20260504025259 69 74 0.0 0.0 0.00 0.00 0.00 51 1019.6
20260504024756 70 73 0.0 0.0 0.00 0.00 0.00 50 1019.8
20260504024252 70 75 0.0 0.0 0.00 0.00 0.00 49 1019.6
20260504023749 70 104 1.0 4.0 0.00 0.00 0.00 48 1019.6
20260504023246 70 78 0.0 1.0 0.00 0.00 0.00 50 1019.5
20260504022742 70 75 0.0 1.0 0.00 0.00 0.00 50 1019.3
20260504022238 70 72 0.0 2.0 0.00 0.00 0.00 52 1019.4
20260504021735 70 70 0.0 0.0 0.00 0.00 0.00 51 1019.1
20260504021232 70 114 0.0 1.0 0.00 0.00 0.00 51 1019.3
20260504020729 70 72 0.0 0.0 0.00 0.00 0.00 51 1019.5
20260504020226 71 71 0.0 0.0 0.00 0.00 0.00 51 1019.4
20260504015722 71 70 0.0 2.0 0.00 0.00 0.00 50 1019.3
20260504015219 71 83 0.0 2.0 0.00 0.00 0.00 49 1019.3
20260504014714 71 74 0.0 0.0 0.00 0.00 0.00 49 1019.4
20260504014211 71 72 0.0 1.0 0.00 0.00 0.00 49 1019.3
20260504013709 71 66 0.0 1.0 0.00 0.00 0.00 49 1019.3
20260504013206 72 103 0.0 1.0 0.00 0.00 0.00 49 1019.1
20260504012703 72 72 0.0 0.0 0.00 0.00 0.00 49 1019.2
20260504012201 72 76 1.0 2.0 0.00 0.00 0.00 50 1019.0
20260504011657 72 94 0.0 2.0 0.00 0.00 0.00 49 1019.2
20260504011154 72 104 0.0 1.0 0.00 0.00 0.00 49 1019.2
20260504010650 72 71 0.0 1.0 0.00 0.00 0.00 49 1019.1
20260504010145 73 73 0.0 1.0 0.00 0.00 0.00 49 1019.1
20260504005643 73 52 0.0 2.0 0.00 0.00 0.00 49 1019.0
20260504005139 73 67 0.0 1.0 0.00 0.00 0.00 47 1019.0
20260504004638 74 107 1.0 2.0 0.00 0.00 0.00 47 1019.1
20260504004134 74 63 1.0 2.0 0.00 0.00 0.00 46 1019.2
20260504003630 74 99 1.0 2.0 0.00 0.00 0.00 46 1019.3
20260504003127 74 75 0.0 0.0 0.00 0.00 0.00 46 1019.3
20260504002624 74 127 1.0 2.0 0.00 0.00 0.00 46 1019.3
20260504002122 74 72 0.0 2.0 0.00 0.00 0.00 46 1019.4
20260504001619 75 77 0.0 1.0 0.00 0.00 0.00 45 1019.5
20260504001115 75 77 0.0 3.0 0.00 0.00 0.00 44 1019.5
20260504000613 76 85 1.0 3.0 0.00 0.00 0.00 44 1019.5
20260504000110 76 78 3.0 7.0 0.00 0.00 0.00 43 1019.5
20260503235608 76 92 1.0 3.0 0.00 0.00 0.00 42 1019.7
20260503235104 76 122 2.0 3.0 0.00 0.00 0.00 42 1019.7
20260503234603 76 88 1.0 1.0 0.00 0.00 0.00 41 1019.6
20260503234100 77 80 3.0 6.0 0.00 0.00 0.00 40 1019.4
20260503233556 77 70 0.0 1.0 0.00 0.00 0.00 40 1019.6
20260503233052 77 106 1.0 2.0 0.00 0.00 0.00 41 1019.7
20260503232550 78 74 1.0 3.0 0.00 0.00 0.00 40 1019.6
20260503232047 78 134 1.0 2.0 0.00 0.00 0.00 41 1019.9
20260503231545 78 81 2.0 3.0 0.00 0.00 0.00 40 1019.7
20260503231041 78 74 1.0 2.0 0.00 0.00 0.00 38 1019.7
20260503230538 79 79 1.0 4.0 0.00 0.00 0.00 36 1019.8
20260503230036 79 135 3.0 6.0 0.00 0.00 0.00 37 1019.8
20260503225532 80 123 0.0 2.0 0.00 0.00 0.00 40 1019.8
20260503225027 80 76 1.0 3.0 0.00 0.00 0.00 39 1019.8
20260503224525 80 25 0.0 1.0 0.00 0.00 0.00 38 1019.8
20260503224023 80 107 1.0 3.0 0.00 0.00 0.00 37 1019.9
20260503223520 80 174 2.0 2.0 0.00 0.00 0.00 39 1019.9
20260503223016 80 94 2.0 4.0 0.00 0.00 0.00 39 1019.9
20260503222514 80 86 1.0 4.0 0.00 0.00 0.00 38 1020.1
20260503222012 80 9 1.0 2.0 0.00 0.00 0.00 39 1020.1
20260503221510 80 64 1.0 1.0 0.00 0.00 0.00 41 1020.1
20260503221007 80 87 1.0 2.0 0.00 0.00 0.00 41 1020.1
20260503220503 79 74 0.0 2.0 0.00 0.00 0.00 41 1020.2
20260503220000 79 72 0.0 2.0 0.00 0.00 0.00 39 1020.2
20260503215457 80 78 0.0 2.0 0.00 0.00 0.00 38 1020.4
20260503214954 80 67 1.0 4.0 0.00 0.00 0.00 40 1020.4
20260503214452 79 104 3.0 4.0 0.00 0.00 0.00 40 1020.6
20260503213949 79 169 1.0 6.0 0.00 0.00 0.00 41 1020.5
20260503213448 79 112 2.0 2.0 0.00 0.00 0.00 41 1020.5
20260503212943 80 169 2.0 6.0 0.00 0.00 0.00 40 1020.8
20260503212441 80 100 1.0 3.0 0.00 0.00 0.00 40 1020.6
20260503211938 81 94 1.0 2.0 0.00 0.00 0.00 40 1020.6
20260503211435 81 117 1.0 1.0 0.00 0.00 0.00 38 1020.9
20260503210931 81 71 0.0 3.0 0.00 0.00 0.00 37 1021.0
20260503210428 81 67 0.0 1.0 0.00 0.00 0.00 37 1021.0
20260503205928 81 75 1.0 7.0 0.00 0.00 0.00 39 1021.4
20260503205425 81 65 1.0 2.0 0.00 0.00 0.00 39 1021.2
20260503204921 81 116 1.0 1.0 0.00 0.00 0.00 38 1021.3
20260503204418 80 86 3.0 6.0 0.00 0.00 0.00 38 1021.4
20260503203915 81 105 2.0 3.0 0.00 0.00 0.00 38 1021.4
20260503203413 81 122 2.0 4.0 0.00 0.00 0.00 40 1021.5
20260503202909 81 32 1.0 2.0 0.00 0.00 0.00 36 1021.5
20260503202408 81 73 1.0 3.0 0.00 0.00 0.00 40 1021.7